When you browse on this site, cookies collect data to enhance your experience and personalize the content and advertising you see.
Visit our Privacy Policy to learn more. By continuing to use the site, you agree to this use of cookies and data.
  • In Sweden
  • List of Countries
  • For 7 days
  • Water Temperature
  • Weather Map
  • Weather Widgets
  • user-avatar
    Login

    Hourly Weather Chicago Heights

    Today, 3 June, Wednesday

    Time Temperature Precipitation Wind Pressure Humidity
    00:00 +25°C° 0.1 mm 5 mps 740 mmHg 85%
    01:00 +25°C° 0.5 mm 4 mps 740 mmHg 87%
    02:00 +24°C° 0.5 mm 3 mps 740 mmHg 88%
    03:00 +24°C° 0.5 mm 2 mps 739 mmHg 90%
    04:00 +24°C° 0.2 mm 2 mps 739 mmHg 91%
    05:00 +24°C° 0.2 mm 3 mps 739 mmHg 92%
    06:00 +23°C° 0.2 mm 4 mps 739 mmHg 93%
    07:00 +25°C° 0.2 mm 4 mps 739 mmHg 85%
    08:00 +26°C° 0.2 mm 3 mps 739 mmHg 78%
    09:00 +27°C° 0.2 mm 3 mps 739 mmHg 70%
    10:00 +28°C° 0.1 mm 3 mps 740 mmHg 64%
    11:00 +29°C° 0.1 mm 3 mps 740 mmHg 57%
    12:00 +31°C° 0.1 mm 3 mps 740 mmHg 51%
    13:00 +30°C° 0.1 mm 3 mps 739 mmHg 48%
    14:00 +30°C° 0.1 mm 3 mps 739 mmHg 44%
    15:00 +30°C° 0.1 mm 3 mps 738 mmHg 41%
    16:00 +29°C° 0 mm 3 mps 738 mmHg 43%
    17:00 +28°C° 0 mm 2 mps 739 mmHg 46%
    18:00 +27°C° 0 mm 2 mps 739 mmHg 48%
    19:00 +26°C° 0 mm 2 mps 739 mmHg 51%
    20:00 +25°C° 0 mm 2 mps 739 mmHg 53%
    21:00 +24°C° 0 mm 2 mps 739 mmHg 56%
    22:00 +23°C° 0 mm 2 mps 739 mmHg 58%
    23:00 +23°C° 0 mm 1 mps 739 mmHg 59%

    Tomorrow, 4 June, Thursday

    Time Temperature Precipitation Wind Pressure Humidity
    00:00 +22°C° 0 mm 1 mps 739 mmHg 61%
    01:00 +22°C° 0 mm 1 mps 739 mmHg 61%
    02:00 +21°C° 0 mm 1 mps 739 mmHg 62%
    03:00 +21°C° 0 mm 1 mps 738 mmHg 63%
    04:00 +22°C° 0 mm 1 mps 739 mmHg 62%
    05:00 +22°C° 0 mm 1 mps 739 mmHg 61%
    06:00 +21°C° 0 mm 0 mps 739 mmHg 60%
    07:00 +24°C° 0 mm 1 mps 739 mmHg 55%
    08:00 +26°C° 0 mm 1 mps 739 mmHg 51%
    09:00 +27°C° 0 mm 2 mps 740 mmHg 46%
    10:00 +28°C° 0 mm 2 mps 739 mmHg 45%
    11:00 +29°C° 0 mm 2 mps 739 mmHg 43%
    12:00 +30°C° 0 mm 2 mps 739 mmHg 41%
    13:00 +31°C° 0 mm 2 mps 739 mmHg 41%
    14:00 +31°C° 0 mm 2 mps 739 mmHg 41%
    15:00 +31°C° 0 mm 2 mps 739 mmHg 41%
    16:00 +31°C° 0 mm 2 mps 739 mmHg 44%
    17:00 +30°C° 0 mm 2 mps 739 mmHg 46%
    18:00 +30°C° 0 mm 2 mps 739 mmHg 49%
    19:00 +28°C° 0 mm 2 mps 739 mmHg 52%
    20:00 +27°C° 0 mm 2 mps 739 mmHg 56%
    21:00 +26°C° 0 mm 2 mps 739 mmHg 60%
    22:00 +25°C° 0 mm 2 mps 739 mmHg 63%
    23:00 +25°C° 0 mm 2 mps 739 mmHg 65%

    Day after tomorrow, 5 June, Friday

    Time Temperature Precipitation Wind Pressure Humidity
    00:00 +24°C° 0 mm 2 mps 738 mmHg 68%
    01:00 +24°C° 0 mm 2 mps 739 mmHg 70%
    02:00 +23°C° 0 mm 2 mps 739 mmHg 73%
    03:00 +23°C° 0 mm 2 mps 739 mmHg 75%
    04:00 +23°C° 0 mm 2 mps 739 mmHg 77%
    05:00 +24°C° 0 mm 2 mps 739 mmHg 79%
    06:00 +24°C° 0 mm 1 mps 739 mmHg 81%
    07:00 +26°C° 0 mm 2 mps 739 mmHg 76%
    08:00 +27°C° 0 mm 3 mps 739 mmHg 70%
    09:00 +29°C° 0 mm 3 mps 739 mmHg 64%
    10:00 +30°C° 0 mm 3 mps 739 mmHg 60%
    11:00 +32°C° 0 mm 4 mps 740 mmHg 57%
    12:00 +33°C° 0 mm 4 mps 740 mmHg 53%
    13:00 +33°C° 0 mm 4 mps 740 mmHg 51%
    14:00 +34°C° 0 mm 4 mps 740 mmHg 50%
    15:00 +34°C° 0 mm 4 mps 740 mmHg 48%
    16:00 +33°C° 0 mm 3 mps 740 mmHg 52%
    17:00 +31°C° 0 mm 3 mps 740 mmHg 56%
    18:00 +29°C° 0 mm 3 mps 740 mmHg 59%
    19:00 +28°C° 0.1 mm 3 mps 740 mmHg 63%
    20:00 +26°C° 0.1 mm 2 mps 741 mmHg 68%
    21:00 +25°C° 0.1 mm 2 mps 742 mmHg 72%
    22:00 +25°C° 0 mm 2 mps 742 mmHg 70%
    23:00 +24°C° 0 mm 2 mps 742 mmHg 69%

    6 June, Saturday

    Time Temperature Precipitation Wind Pressure Humidity
    00:00 +24°C° 0 mm 2 mps 742 mmHg 68%
    01:00 +23°C° 0 mm 2 mps 742 mmHg 66%
    02:00 +23°C° 0 mm 2 mps 742 mmHg 65%
    03:00 +21°C° 0 mm 3 mps 742 mmHg 64%
    04:00 +21°C° 0 mm 3 mps 743 mmHg 62%
    05:00 +21°C° 0 mm 3 mps 743 mmHg 60%
    06:00 +21°C° 0 mm 3 mps 744 mmHg 59%
    07:00 +21°C° 0 mm 4 mps 744 mmHg 55%
    08:00 +22°C° 0 mm 4 mps 744 mmHg 52%
    09:00 +22°C° 0 mm 4 mps 744 mmHg 49%
    10:00 +22°C° 0 mm 4 mps 744 mmHg 47%
    11:00 +23°C° 0 mm 4 mps 744 mmHg 45%
    12:00 +23°C° 0 mm 4 mps 744 mmHg 42%
    13:00 +23°C° 0 mm 4 mps 744 mmHg 43%
    14:00 +23°C° 0 mm 4 mps 744 mmHg 43%
    15:00 +22°C° 0 mm 5 mps 744 mmHg 43%
    16:00 +21°C° 0 mm 4 mps 744 mmHg 48%
    17:00 +20°C° 0 mm 4 mps 744 mmHg 53%
    18:00 +18°C° 0 mm 4 mps 744 mmHg 58%
    19:00 +18°C° 0 mm 4 mps 744 mmHg 61%
    20:00 +17°C° 0 mm 4 mps 744 mmHg 64%
    21:00 +15°C° 0 mm 4 mps 745 mmHg 67%
    22:00 +16°C° 0 mm 3 mps 745 mmHg 69%
    23:00 +16°C° 0 mm 3 mps 745 mmHg 70%

    7 June, Sunday

    Time Temperature Precipitation Wind Pressure Humidity
    00:00 +14°C° 0 mm 3 mps 745 mmHg 72%
    01:00 +14°C° 0 mm 3 mps 745 mmHg 75%
    02:00 +14°C° 0 mm 3 mps 745 mmHg 78%
    03:00 +14°C° 0 mm 3 mps 745 mmHg 81%
    04:00 +14°C° 0 mm 3 mps 745 mmHg 80%
    05:00 +16°C° 0 mm 3 mps 745 mmHg 78%
    06:00 +16°C° 0 mm 3 mps 745 mmHg 77%
    07:00 +17°C° 0 mm 3 mps 746 mmHg 72%
    08:00 +19°C° 0 mm 3 mps 746 mmHg 67%
    09:00 +20°C° 0 mm 3 mps 746 mmHg 63%
    10:00 +21°C° 0 mm 4 mps 746 mmHg 60%
    11:00 +23°C° 0 mm 4 mps 746 mmHg 57%
    12:00 +25°C° 0 mm 4 mps 746 mmHg 54%
    13:00 +25°C° 0 mm 4 mps 746 mmHg 54%
    14:00 +25°C° 0 mm 4 mps 745 mmHg 54%
    15:00 +26°C° 0 mm 4 mps 745 mmHg 54%
    16:00 +25°C° 0 mm 4 mps 745 mmHg 57%
    17:00 +25°C° 0 mm 4 mps 745 mmHg 60%
    18:00 +23°C° 0 mm 4 mps 745 mmHg 63%
    19:00 +22°C° 0 mm 4 mps 745 mmHg 64%
    20:00 +21°C° 0 mm 4 mps 745 mmHg 66%
    21:00 +20°C° 0 mm 4 mps 745 mmHg 68%
    22:00 +19°C° 0 mm 4 mps 746 mmHg 68%
    23:00 +18°C° 0 mm 4 mps 746 mmHg 68%

    8 June, Monday

    Time Temperature Precipitation Wind Pressure Humidity
    00:00 +18°C° 0 mm 4 mps 746 mmHg 69%
    01:00 +17°C° 0 mm 4 mps 746 mmHg 68%
    02:00 +15°C° 0 mm 4 mps 746 mmHg 67%
    03:00 +15°C° 0 mm 4 mps 746 mmHg 65%
    04:00 +15°C° 0 mm 4 mps 746 mmHg 64%
    05:00 +14°C° 0 mm 4 mps 746 mmHg 63%
    06:00 +14°C° 0 mm 4 mps 747 mmHg 62%
    07:00 +17°C° 0 mm 4 mps 747 mmHg 60%
    08:00 +18°C° 0 mm 4 mps 746 mmHg 57%
    09:00 +20°C° 0 mm 3 mps 746 mmHg 55%
    10:00 +22°C° 0 mm 3 mps 746 mmHg 52%
    11:00 +24°C° 0 mm 3 mps 746 mmHg 49%
    12:00 +26°C° 0 mm 3 mps 746 mmHg 45%
    13:00 +27°C° 0 mm 3 mps 746 mmHg 45%
    14:00 +27°C° 0 mm 3 mps 745 mmHg 44%
    15:00 +28°C° 0 mm 3 mps 745 mmHg 44%
    16:00 +27°C° 0 mm 3 mps 745 mmHg 48%
    17:00 +27°C° 0 mm 3 mps 744 mmHg 51%
    18:00 +26°C° 0 mm 3 mps 744 mmHg 55%
    19:00 +25°C° 0 mm 3 mps 744 mmHg 58%
    20:00 +22°C° 0 mm 3 mps 744 mmHg 61%
    21:00 +21°C° 0 mm 3 mps 744 mmHg 64%
    22:00 +21°C° 0 mm 3 mps 744 mmHg 66%
    23:00 +20°C° 0 mm 3 mps 744 mmHg 68%
    Show more